Location: Unspecified
(37.6100°N, 2.7800°W)
Time: 01:17:40
(UTC+00:00)

OTV 5 (USA 277) - Visible Passes

Search period start: 17 January 2018 00:00
Search period end: 27 January 2018 00:00
Orbit: 404 x 417 km, 43.0° (Epoch: 07 September)

Date Brightness Start Highest point End Pass type
(mag) Time Alt. Az. Time Alt. Az. Time Alt. Az.
20 Jan ? 19:09:14 10° SSW 19:10:38 18° S 19:10:38 18° S visible
21 Jan ? 18:19:04 10° S 18:21:01 15° SE 18:22:18 12° ESE visible
21 Jan ? 19:54:36 10° WSW 19:55:04 13° WSW 19:55:04 13° WSW visible
22 Jan ? 19:03:37 10° SW 19:06:39 54° S 19:06:39 54° S visible
23 Jan ? 18:12:48 10° SW 18:15:55 36° SSE 18:18:11 16° E visible
23 Jan ? 19:49:55 10° W 19:50:57 18° W 19:50:57 18° W visible
24 Jan ? 18:58:43 10° WSW 19:02:04 66° NNW 19:02:26 60° NNE visible
25 Jan ? 18:07:37 10° WSW 18:10:59 87° SSE 18:13:51 14° ENE visible
25 Jan ? 19:45:26 10° WNW 19:46:37 18° WNW 19:46:37 18° WNW visible
26 Jan ? 18:54:10 10° W 18:57:22 39° NNW 18:58:01 35° NNE visible
